Location: Haliburton Scout Reserve
(45.0900°N, 78.3200°W)
Time: 18:13:34
(UTC-04:00)

Tiros 1 despin weight - Pass Details

Date: 05 March 2024
Orbit: 573 x 615 km, 48.2° (Epoch: 02 October)

Event Time Altitude Azimuth Distance (km) Brightness Sun altitude
Rises 04:05:24 0° 135° (SE) 2,856 ? -28.2°
Enters shadow 05:08:09 -66° 241° (WSW) 12,381 ? -17.5°
Maximum altitude 05:46:50 21° 139° (SE) 1,369 ? -10.8°
